| time (UTC) | temp F | wind direction | speed MPH | gust MPH | rain 1hr in | rain 24hr in | rain mn in | humidity % | barometer mb |
| 20260906161217 | 78 | 0 | 5.0 | 7.0 | 0.00 | 0.00 | 0.00 | 65 | 1018.9 |
| 20260906160217 | 78 | 113 | 5.0 | 9.0 | 0.00 | 0.00 | 0.00 | 66 | 1018.8 |
| 20260906155217 | 78 | 0 | 6.0 | 10.0 | 0.00 | 0.00 | 0.00 | 67 | 1018.8 |
| 20260906154217 | 78 | 0 | 7.0 | 8.0 | 0.00 | 0.00 | 0.00 | 68 | 1018.7 |
| 20260906153237 | 78 | 0 | 4.0 | 8.0 | 0.00 | 0.00 | 0.00 | 70 | 1018.7 |
| 20260906152217 | 77 | 0 | 5.0 | 8.0 | 0.00 | 0.00 | 0.00 | 72 | 1018.7 |
| 20260906151217 | 76 | 0 | 3.0 | 4.0 | 0.00 | 0.00 | 0.00 | 76 | 1018.7 |
| 20260906150217 | 75 | 0 | 3.0 | 4.0 | 0.00 | 0.00 | 0.00 | 75 | 1018.7 |
| 20260906145217 | 75 | 90 | 5.0 | 8.0 | 0.00 | 0.00 | 0.00 | 77 | 1018.8 |
| 20260906144217 | 75 | 0 | 4.0 | 6.0 | 0.00 | 0.00 | 0.00 | 77 | 1018.8 |
| 20260906143217 | 75 | 0 | 6.0 | 9.0 | 0.00 | 0.00 | 0.00 | 78 | 1018.8 |
| 20260906142217 | 75 | 90 | 5.0 | 7.0 | 0.00 | 0.00 | 0.00 | 78 | 1018.7 |
| 20260906141217 | 74 | 0 | 4.0 | 8.0 | 0.00 | 0.00 | 0.00 | 80 | 1018.7 |
| 20260906140217 | 74 | 0 | 2.0 | 3.0 | 0.00 | 0.00 | 0.00 | 82 | 1018.8 |
| 20260906135217 | 73 | 0 | 3.0 | 5.0 | 0.00 | 0.00 | 0.00 | 84 | 1018.7 |
| 20260906134217 | 72 | 0 | 4.0 | 4.0 | 0.00 | 0.00 | 0.00 | 87 | 1018.5 |
| 20260906133217 | 72 | 90 | 4.0 | 6.0 | 0.00 | 0.00 | 0.00 | 89 | 1018.3 |
| 20260906132217 | 71 | 0 | 4.0 | 8.0 | 0.00 | 0.00 | 0.00 | 91 | 1018.2 |
| 20260906131257 | 70 | 90 | 3.0 | 4.0 | 0.00 | 0.00 | 0.00 | 92 | 1018.4 |
| 20260906130217 | 70 | 90 | 6.0 | 9.0 | 0.00 | 0.00 | 0.00 | 93 | 1018.4 |
| 20260906125217 | 69 | 68 | 3.0 | 5.0 | 0.00 | 0.00 | 0.00 | 93 | 1018.4 |
| 20260906124217 | 68 | 68 | 3.0 | 5.0 | 0.00 | 0.00 | 0.00 | 94 | 1018.1 |
| 20260906123217 | 68 | 68 | 3.0 | 3.0 | 0.00 | 0.00 | 0.00 | 94 | 1018.0 |
| 20260906122237 | 67 | 45 | 2.0 | 3.0 | 0.00 | 0.00 | 0.00 | 94 | 1018.0 |
| 20260906121217 | 67 | 45 | 2.0 | 3.0 | 0.00 | 0.00 | 0.00 | 94 | 1017.8 |
| 20260906120217 | 67 | 45 | 1.0 | 3.0 | 0.00 | 0.00 | 0.00 | 93 | 1017.6 |
| 20260906115217 | 67 | 68 | 1.0 | 2.0 | 0.00 | 0.00 | 0.00 | 93 | 1017.4 |
| 20260906114216 | 66 | 45 | 2.0 | 3.0 | 0.00 | 0.00 | 0.00 | 93 | 1017.2 |
| 20260906113217 | 66 | 0 | 3.0 | 3.0 | 0.00 | 0.00 | 0.00 | 93 | 1017.0 |
| 20260906112217 | 66 | 68 | 3.0 | 5.0 | 0.00 | 0.00 | 0.00 | 93 | 1017.1 |
| 20260906111217 | 66 | 45 | 2.0 | 3.0 | 0.00 | 0.00 | 0.00 | 93 | 1016.9 |
| 20260906110217 | 67 | 45 | 2.0 | 3.0 | 0.00 | 0.00 | 0.00 | 93 | 1017.0 |
| 20260906105237 | 67 | 45 | 2.0 | 4.0 | 0.00 | 0.00 | 0.00 | 93 | 1016.9 |
| 20260906104217 | 67 | 23 | 1.0 | 2.0 | 0.00 | 0.00 | 0.00 | 93 | 1017.0 |
| 20260906103236 | 67 | 0 | 1.0 | 2.0 | 0.00 | 0.00 | 0.00 | 93 | 1016.7 |
| 20260906102216 | 67 | 23 | 3.0 | 5.0 | 0.00 | 0.00 | 0.00 | 93 | 1016.7 |
| 20260906101217 | 67 | 45 | 2.0 | 3.0 | 0.00 | 0.00 | 0.00 | 92 | 1016.6 |
| 20260906100217 | 67 | 23 | 3.0 | 5.0 | 0.00 | 0.00 | 0.00 | 92 | 1016.7 |
| 20260906095216 | 67 | 0.0 | 1.0 | 0.00 | 0.00 | 0.00 | 92 | 1016.7 | |
| 20260906094217 | 67 | 23 | 3.0 | 4.0 | 0.00 | 0.00 | 0.00 | 92 | 1016.6 |
| 20260906093237 | 67 | 45 | 1.0 | 2.0 | 0.00 | 0.00 | 0.00 | 92 | 1016.5 |
| 20260906092216 | 67 | 23 | 1.0 | 2.0 | 0.00 | 0.00 | 0.00 | 92 | 1016.4 |
| 20260906091217 | 67 | 45 | 2.0 | 3.0 | 0.00 | 0.00 | 0.00 | 92 | 1016.5 |
| 20260906090216 | 67 | 45 | 2.0 | 3.0 | 0.00 | 0.00 | 0.00 | 91 | 1016.4 |
| 20260906085217 | 68 | 23 | 1.0 | 2.0 | 0.00 | 0.00 | 0.00 | 91 | 1016.5 |
| 20260906084216 | 68 | 45 | 2.0 | 3.0 | 0.00 | 0.00 | 0.00 | 91 | 1016.3 |
| 20260906083237 | 68 | 23 | 1.0 | 2.0 | 0.00 | 0.00 | 0.00 | 91 | 1016.3 |
| 20260906082216 | 68 | 0.0 | 1.0 | 0.00 | 0.00 | 0.00 | 90 | 1016.4 | |
| 20260906081216 | 68 | 0.0 | 0.0 | 0.00 | 0.00 | 0.00 | 90 | 1016.5 | |
| 20260906080216 | 68 | 315 | 1.0 | 2.0 | 0.00 | 0.00 | 0.00 | 90 | 1016.5 |
| 20260906075216 | 69 | 0.0 | 1.0 | 0.00 | 0.00 | 0.00 | 90 | 1016.4 | |
| 20260906074236 | 69 | 338 | 1.0 | 2.0 | 0.00 | 0.00 | 0.00 | 90 | 1016.4 |
| 20260906073216 | 69 | 45 | 1.0 | 3.0 | 0.00 | 0.00 | 0.00 | 90 | 1016.4 |
| 20260906072256 | 69 | 23 | 1.0 | 3.0 | 0.00 | 0.00 | 0.00 | 90 | 1016.5 |
| 20260906071217 | 69 | 68 | 1.0 | 2.0 | 0.00 | 0.00 | 0.00 | 89 | 1016.5 |
| 20260906070216 | 70 | 23 | 2.0 | 3.0 | 0.00 | 0.00 | 0.00 | 89 | 1016.6 |
| 20260906065216 | 70 | 0.0 | 0.0 | 0.00 | 0.00 | 0.00 | 89 | 1016.6 | |
| 20260906064216 | 70 | 0.0 | 1.0 | 0.00 | 0.00 | 0.00 | 88 | 1016.6 | |
| 20260906063217 | 70 | 45 | 2.0 | 4.0 | 0.00 | 0.00 | 0.00 | 88 | 1016.5 |
| 20260906062236 | 70 | 68 | 2.0 | 2.0 | 0.00 | 0.00 | 0.00 | 88 | 1016.5 |
| 20260906061216 | 71 | 68 | 1.0 | 1.0 | 0.00 | 0.00 | 0.00 | 87 | 1016.5 |
| 20260906060216 | 71 | 0.0 | 1.0 | 0.00 | 0.00 | 0.00 | 87 | 1016.5 | |
| 20260906055216 | 71 | 0 | 5.0 | 9.0 | 0.00 | 0.00 | 0.00 | 87 | 1016.7 |
| 20260906054216 | 71 | 45 | 4.0 | 9.0 | 0.00 | 0.00 | 0.00 | 87 | 1016.6 |
| 20260906053236 | 71 | 45 | 3.0 | 5.0 | 0.00 | 0.00 | 0.00 | 87 | 1016.6 |
| 20260906052216 | 71 | 45 | 3.0 | 4.0 | 0.00 | 0.00 | 0.00 | 87 | 1016.5 |
| 20260906051216 | 71 | 45 | 1.0 | 3.0 | 0.00 | 0.00 | 0.00 | 88 | 1016.4 |
| 20260906050216 | 71 | 68 | 2.0 | 3.0 | 0.00 | 0.00 | 0.00 | 88 | 1016.4 |
| 20260906045217 | 71 | 0 | 2.0 | 3.0 | 0.00 | 0.00 | 0.00 | 87 | 1016.4 |
| 20260906044217 | 71 | 45 | 1.0 | 2.0 | 0.00 | 0.00 | 0.00 | 88 | 1016.3 |
| 20260906043217 | 71 | 23 | 3.0 | 6.0 | 0.00 | 0.00 | 0.00 | 88 | 1016.2 |
| 20260906042217 | 71 | 45 | 4.0 | 5.0 | 0.00 | 0.00 | 0.00 | 88 | 1016.0 |
| 20260906041216 | 71 | 68 | 1.0 | 3.0 | 0.00 | 0.00 | 0.00 | 88 | 1015.7 |
| 20260906040237 | 71 | 0 | 5.0 | 8.0 | 0.00 | 0.00 | 0.00 | 88 | 1015.6 |
| 20260906035216 | 71 | 0 | 5.0 | 8.0 | 0.00 | 0.00 | 0.00 | 87 | 1015.5 |
| 20260906034217 | 71 | 0 | 4.0 | 9.0 | 0.00 | 0.00 | 0.00 | 87 | 1015.5 |
| 20260906033216 | 71 | 0 | 5.0 | 9.0 | 0.00 | 0.00 | 0.00 | 87 | 1015.3 |
| 20260906032237 | 71 | 0 | 5.0 | 9.0 | 0.00 | 0.00 | 0.00 | 87 | 1015.1 |
| 20260906031217 | 71 | 0 | 8.0 | 11.0 | 0.00 | 0.00 | 0.00 | 87 | 1015.3 |
| 20260906030217 | 71 | 0 | 3.0 | 6.0 | 0.00 | 0.00 | 0.00 | 87 | 1015.3 |
| 20260906025216 | 71 | 0 | 5.0 | 8.0 | 0.00 | 0.00 | 0.00 | 86 | 1015.3 |
| 20260906024217 | 71 | 0 | 5.0 | 9.0 | 0.00 | 0.00 | 0.00 | 86 | 1015.4 |
| 20260906023217 | 71 | 0 | 7.0 | 12.0 | 0.00 | 0.00 | 0.00 | 85 | 1015.3 |
| 20260906022236 | 72 | 68 | 5.0 | 7.0 | 0.00 | 0.00 | 0.00 | 85 | 1015.1 |
| 20260906021216 | 72 | 0 | 5.0 | 9.0 | 0.00 | 0.00 | 0.00 | 85 | 1015.1 |
| 20260906020236 | 72 | 90 | 5.0 | 9.0 | 0.00 | 0.00 | 0.00 | 84 | 1015.1 |
| 20260906015217 | 72 | 0 | 6.0 | 12.0 | 0.00 | 0.00 | 0.00 | 84 | 1015.3 |
| 20260906014216 | 72 | 0 | 4.0 | 8.0 | 0.00 | 0.00 | 0.00 | 84 | 1015.2 |
| 20260906013217 | 72 | 45 | 4.0 | 7.0 | 0.00 | 0.00 | 0.00 | 84 | 1015.2 |
| 20260906012236 | 72 | 45 | 6.0 | 9.0 | 0.00 | 0.00 | 0.00 | 84 | 1015.1 |
| 20260906011216 | 72 | 45 | 4.0 | 5.0 | 0.00 | 0.00 | 0.00 | 83 | 1015.2 |
| 20260906010216 | 72 | 0 | 2.0 | 3.0 | 0.00 | 0.00 | 0.00 | 83 | 1015.1 |
| 20260906005216 | 72 | 45 | 3.0 | 4.0 | 0.00 | 0.00 | 0.00 | 83 | 1014.9 |
| 20260906004216 | 72 | 45 | 1.0 | 2.0 | 0.00 | 0.00 | 0.00 | 83 | 1014.8 |
| 20260906003216 | 72 | 23 | 4.0 | 9.0 | 0.00 | 0.00 | 0.00 | 83 | 1014.6 |
| 20260906002216 | 72 | 45 | 3.0 | 5.0 | 0.00 | 0.00 | 0.00 | 84 | 1014.7 |
| 20260906001217 | 73 | 68 | 2.0 | 4.0 | 0.00 | 0.00 | 0.00 | 84 | 1014.4 |
| 20260906000219 | 73 | 45 | 6.0 | 11.0 | 0.00 | 0.00 | 0.00 | 83 | 1014.5 |
| 20260905235216 | 73 | 45 | 11.0 | 17.0 | 0.00 | 0.00 | 0.00 | 82 | 1014.4 |
| 20260905234216 | 74 | 68 | 9.0 | 12.0 | 0.00 | 0.00 | 0.00 | 82 | 1014.5 |
| 20260905233216 | 75 | 23 | 9.0 | 15.0 | 0.00 | 0.00 | 0.00 | 81 | 1014.5 |
| 20260905232216 | 76 | 68 | 7.0 | 12.0 | 0.00 | 0.00 | 0.00 | 80 | 1014.2 |
| 20260905231216 | 77 | 0 | 6.0 | 9.0 | 0.00 | 0.00 | 0.00 | 79 | 1014.3 |
| 20260905230256 | 77 | 0 | 8.0 | 13.0 | 0.00 | 0.00 | 0.00 | 78 | 1014.1 |
| 20260905225216 | 78 | 0 | 7.0 | 13.0 | 0.00 | 0.00 | 0.00 | 76 | 1013.9 |
| 20260905224236 | 79 | 68 | 8.0 | 10.0 | 0.00 | 0.00 | 0.00 | 76 | 1014.1 |
| 20260905223216 | 80 | 45 | 8.0 | 17.0 | 0.00 | 0.00 | 0.00 | 74 | 1013.9 |
| 20260905222216 | 80 | 45 | 7.0 | 11.0 | 0.00 | 0.00 | 0.00 | 74 | 1013.7 |
| 20260905221216 | 81 | 45 | 7.0 | 13.0 | 0.00 | 0.00 | 0.00 | 73 | 1013.8 |
| 20260905220236 | 81 | 68 | 3.0 | 6.0 | 0.00 | 0.00 | 0.00 | 71 | 1014.0 |
| 20260905215216 | 83 | 90 | 6.0 | 12.0 | 0.00 | 0.00 | 0.00 | 69 | 1013.9 |
| 20260905214216 | 83 | 23 | 4.0 | 6.0 | 0.00 | 0.00 | 0.00 | 67 | 1013.7 |
| 20260905213216 | 83 | 0 | 2.0 | 4.0 | 0.00 | 0.00 | 0.00 | 69 | 1013.8 |
| 20260905212256 | 83 | 315 | 4.0 | 5.0 | 0.00 | 0.00 | 0.00 | 69 | 1013.6 |
| 20260905211216 | 82 | 0 | 1.0 | 2.0 | 0.00 | 0.00 | 0.00 | 72 | 1013.7 |
| 20260905210216 | 81 | 68 | 1.0 | 2.0 | 0.00 | 0.00 | 0.00 | 73 | 1013.7 |
| 20260905205216 | 81 | 68 | 4.0 | 6.0 | 0.00 | 0.00 | 0.00 | 73 | 1013.8 |
| 20260905204216 | 81 | 45 | 4.0 | 7.0 | 0.00 | 0.00 | 0.00 | 73 | 1013.9 |
| 20260905203216 | 80 | 315 | 2.0 | 4.0 | 0.00 | 0.00 | 0.00 | 75 | 1014.0 |
| 20260905202256 | 80 | 23 | 3.0 | 4.0 | 0.00 | 0.00 | 0.00 | 75 | 1014.0 |
| 20260905201216 | 80 | 68 | 4.0 | 8.0 | 0.00 | 0.00 | 0.00 | 78 | 1014.0 |
| 20260905200216 | 78 | 90 | 4.0 | 7.0 | 0.00 | 0.00 | 0.00 | 79 | 1013.8 |
| 20260905195216 | 78 | 0 | 3.0 | 5.0 | 0.00 | 0.00 | 0.00 | 79 | 1014.1 |
| 20260905194216 | 78 | 68 | 1.0 | 2.0 | 0.00 | 0.00 | 0.00 | 80 | 1014.1 |
| 20260905193216 | 78 | 23 | 3.0 | 5.0 | 0.00 | 0.00 | 0.00 | 79 | 1014.1 |
| 20260905192216 | 78 | 23 | 4.0 | 6.0 | 0.00 | 0.00 | 0.00 | 79 | 1014.3 |
| 20260905191216 | 78 | 315 | 5.0 | 8.0 | 0.00 | 0.00 | 0.00 | 80 | 1014.3 |
| 20260905190216 | 78 | 0 | 2.0 | 4.0 | 0.00 | 0.00 | 0.00 | 79 | 1014.2 |
| 20260905185216 | 78 | 45 | 4.0 | 6.0 | 0.00 | 0.00 | 0.00 | 79 | 1014.5 |
| 20260905184216 | 78 | 45 | 8.0 | 10.0 | 0.00 | 0.00 | 0.00 | 79 | 1014.4 |
| 20260905183216 | 78 | 45 | 4.0 | 6.0 | 0.00 | 0.00 | 0.00 | 80 | 1014.5 |
| 20260905182215 | 78 | 315 | 3.0 | 6.0 | 0.00 | 0.00 | 0.00 | 79 | 1014.5 |
| 20260905181216 | 78 | 45 | 2.0 | 4.0 | 0.00 | 0.00 | 0.00 | 79 | 1014.4 |
| 20260905180215 | 79 | 23 | 3.0 | 5.0 | 0.00 | 0.00 | 0.00 | 79 | 1014.4 |
| 20260905175216 | 79 | 45 | 4.0 | 7.0 | 0.00 | 0.00 | 0.00 | 78 | 1014.3 |
| 20260905174216 | 79 | 45 | 5.0 | 11.0 | 0.00 | 0.00 | 0.00 | 78 | 1014.3 |
| 20260905173216 | 79 | 68 | 4.0 | 8.0 | 0.00 | 0.00 | 0.00 | 79 | 1014.2 |
| 20260905172216 | 79 | 338 | 5.0 | 10.0 | 0.00 | 0.00 | 0.00 | 77 | 1014.3 |
| 20260905171216 | 80 | 23 | 3.0 | 6.0 | 0.00 | 0.00 | 0.00 | 77 | 1014.4 |
| 20260905170216 | 81 | 45 | 7.0 | 10.0 | 0.00 | 0.00 | 0.00 | 76 | 1014.5 |
| 20260905165215 | 81 | 135 | 2.0 | 4.0 | 0.00 | 0.00 | 0.00 | 76 | 1014.6 |
| 20260905164215 | 82 | 23 | 3.0 | 6.0 | 0.00 | 0.00 | 0.00 | 74 | 1014.6 |
| 20260905163215 | 82 | 45 | 7.0 | 9.0 | 0.00 | 0.00 | 0.00 | 75 | 1014.5 |
| 20260905162215 | 82 | 45 | 2.0 | 4.0 | 0.00 | 0.00 | 0.00 | 75 | 1014.4 |